OBJECT D, 67251

Orbit data source: Space-Track

You're viewing an Uncataloged Satellite

Recently launched and/or uncataloged satellites may have evolving metadata. Metadata may include but not limited to: Owner, Maufacturer, Bus, Motor, and Mission.

OBJECT D, 67251 is a satellite in SSO that was launched on Sun, 28 Dec 2025 UTC via an FALCON 9 launch vehicle from the Vostochny Cosmodrome (VOSTO). Unknown objects in Earth's orbit typically refer to objects detected orbiting the Earth but have not yet been identified or cataloged. These objects could be anything from previously untracked satellites, spent rocket stages, debris from satellite collisions, or even natural meteoroids temporarily captured by Earth's gravity.

Loading next visibility...
Identifier
67251, 2025-313D
Orbit
SSO
Country
Flag of TBDTBD
Related business
Manufacturer
FERG
Mission
Operational Commercial Communications
Bus & Motor
CUBESAT 6U, Unknown motor
Mass
~10 kg wet, ~10 kg dry
Launch date (UTC)
2025-12-28 (6 months ago)
Launch vehicle
FALCON 9
Launch site
Vostochny Cosmodrome (VOSTO)
Object type
Unknown
Shape & HBR
Box, 0.3 m
Radar Cross Section
0.255 m², Medium (>0.1 m² and < 1m²)

Expand to show TLE details & history
Last TLE update: 1 day ago

TLE from 1 day ago
0 OBJECT D
1 67251U 25313D   26170.76372297  .00001008  00000-0  91536-4 0  9991
2 67251  97.5689 240.9780 0147608 319.0242  39.9958 14.89643011 25786
Epoch: 2026-06-19T18:19Z
TLE epoch observation values (Epoch: 2026-06-19T18:19:45.664Z)
Latitude
-0°
Longitude
58.04971°
Altitude
523.819 km
Speed
7.644 km/s
True Right ascension
16h 03m 54s
True Declination
0° 00' 00"
Sunlit
Object was in full shadow at epoch
Visualization orbit readout
Latitude
Unknown
Longitude
Unknown
Altitude
Unknown
Speed
Unknown
Apparent Right ascension
Unknown
Apparent Declination
Unknown
Sunlit
N/A
Visualization observer readout
Local Sidereal Time
10:19:33
Azimuth
Unknown
Elevation
Unknown
Doppler factor
Unknown
Orbital elements
Apogee altitude
699.007 km
Perigee altitude
493.118 km
Semi-major axis
6,974.2 km
Eccentricity
0.01476
Inclination
97.5689°
RAAN
240.978°
Arg. of periapsis
319.0242°
True anomaly
41.09847°
Mean anomaly
39.9958°
Eccentric anomaly
40.54557°
Mean motion
3.7265 °/min
Orbital period
96.61 mins
BSTAR
0.000091536
Loading maneuver chart data...
Computing Atmospheric mass density...
Loading historical data...
Loading historical data...
Loading historical data...
Loading historical data...
Loading historical data...
Loading historical data...
Loading historical data...

Documentation

Showing up to 5 results
|